Weather History for KDIK - April, 2013

Change the Weather History Date:

Monday, April 8, 2013

  Actual Average Record
Temperature  
Mean Temperature 24 °F 39 °F  
Max Temperature 34 °F 52 °F 80 °F (1977)
Min Temperature 13 °F 27 °F -8 °F (1997)
Degree Days  
Heating Degree Days 41 26  
Month to date heating degree days 222 217  
Since 1 July heating degree days 7406 7597  
Cooling Degree Days 0 0  
Month to date cooling degree days 0 0  
Year to date cooling degree days 0 0  
Moisture  
Dew Point 20 °F    
Average Humidity 87    
Maximum Humidity 100    
Minimum Humidity 73    
Precipitation  
Precipitation 0.14 in 0.04 in 0.82 in (1975)
Month to date precipitation 0.14 0.30  
Year to date precipitation 0.57 1.62  
Sea Level Pressure  
Sea Level Pressure 29.98 in    
Wind  
Wind Speed 18 mph (NNE)    
Max Wind Speed 31 mph    
Max Gust Speed 35 mph    
Visibility 4 miles    
Events Fog , Rain , Snow    
T = Trace of Precipitation, MM = Missing Value Source: NWS Daily Summary

Daily Weather History Graph

Daily Weather History Graph

Search for Another Location

Airport or City:

Trip Planner

Search our weather history database for the weather conditions in past years. The results will help you decide how hot, cold, wet, or windy it might be!

Date:

Astronomy

Apr. 08, 2013 Rise Set
Actual Time 6:16 AM MDT 7:30 PM MDT
Civil Twilight 5:45 AM MDT 8:01 PM MDT
Nautical Twilight 5:07 AM MDT 8:39 PM MDT
Astronomical Twilight 4:27 AM MDT 9:19 PM MDT
Moon 5:13 AM MDT (4/8) 6:03 PM MDT (4/8)
Length of Visible Light 14h 16m
Length of Day
13h 14m
Waning Crescent, 3% of the Moon is Illuminated
Apr 8
Waning Crescent
Apr 10
New
Apr 18
First Quarter
Apr 25
Full
May 2
Last Quarter

Hourly Weather History & Observations

Time (MDT) Temp. Windchill Dew Point Humidity Pressure Visibility Wind Dir Wind Speed Gust Speed Precip Events Conditions
12:21 AM 33.8 °F 23.9 °F 33.8 °F 100% 29.66 in 0.2 mi NNE 15.0 mph - N/A Fog Fog
12:30 AM 33.8 °F 24.8 °F 33.8 °F 100% 29.67 in 0.5 mi NNE 12.7 mph - N/A Fog Fog
12:56 AM 34.0 °F 23.4 °F 33.1 °F 96% 29.70 in 1.5 mi NNE 17.3 mph 21.9 mph N/A   Overcast
1:13 AM 33.8 °F 23.5 °F 33.8 °F 100% 29.67 in 2.0 mi NNE 16.1 mph - N/A   Overcast
1:56 AM 34.0 °F 26.6 °F 33.1 °F 96% 29.71 in 2.5 mi NNE 9.2 mph - N/A   Overcast
2:26 AM 33.8 °F 23.9 °F 32.0 °F 93% 29.70 in 1.5 mi NNE 15.0 mph - N/A   Overcast
2:56 AM 33.1 °F 23.0 °F 32.0 °F 96% 29.73 in 0.8 mi NNE 15.0 mph - N/A   Mist
3:41 AM 33.8 °F 24.8 °F 32.0 °F 93% 29.70 in 0.2 mi NE 12.7 mph - 0.00 in Fog , Rain Light Rain
3:56 AM 32.0 °F 21.2 °F 30.9 °F 96% 29.73 in 0.2 mi NNE 16.1 mph - 0.00 in Fog Fog
4:14 AM 32.0 °F 21.2 °F 30.2 °F 93% 29.70 in 0.5 mi NNE 16.1 mph - 0.00 in Fog , Rain Light Freezing Rain
4:24 AM 32.0 °F 21.2 °F 30.2 °F 93% 29.70 in 0.8 mi NNE 16.1 mph - 0.00 in Rain Light Freezing Rain
4:36 AM 32.0 °F 21.6 °F 30.2 °F 93% 29.71 in 1.5 mi NNE 15.0 mph - 0.00 in Rain Light Freezing Rain
4:47 AM 32.0 °F 23.0 °F 30.2 °F 93% 29.71 in 2.0 mi NE 11.5 mph - 0.00 in Rain Light Freezing Rain
4:56 AM 32.0 °F 21.2 °F 30.9 °F 96% 29.74 in 1.0 mi NE 16.1 mph - 0.00 in Snow Light Snow
5:04 AM 32.0 °F 22.1 °F 30.2 °F 93% 29.71 in 0.8 mi NE 13.8 mph - 0.00 in Snow Light Snow
5:23 AM 32.0 °F 22.1 °F 30.2 °F 93% 29.72 in 1.2 mi NE 13.8 mph - 0.01 in Snow Light Snow
5:47 AM 30.2 °F 18.5 °F 30.2 °F 100% 29.73 in 2.5 mi NE 17.3 mph - 0.02 in Snow Light Snow
5:56 AM 30.9 °F 19.4 °F 30.0 °F 96% 29.76 in 2.5 mi NE 17.3 mph - 0.02 in Snow Light Snow
6:04 AM 30.2 °F 18.5 °F 30.2 °F 100% 29.73 in 3.0 mi NE 17.3 mph - 0.00 in Snow Light Snow
6:30 AM 30.2 °F 18.9 °F 30.2 °F 100% 29.74 in 2.5 mi NE 16.1 mph 26.5 mph 0.01 in Snow Light Snow
6:42 AM 30.2 °F 18.1 °F 30.2 °F 100% 29.75 in 4.0 mi NE 18.4 mph - 0.01 in Snow Light Snow
6:56 AM 30.9 °F 17.5 °F 28.9 °F 92% 29.79 in 4.0 mi NE 24.2 mph 31.1 mph 0.01 in Snow Light Snow
7:09 AM 30.2 °F 16.5 °F 28.4 °F 93% 29.76 in 1.8 mi NE 24.2 mph - 0.00 in Snow Light Snow
7:37 AM 28.4 °F 13.8 °F 26.6 °F 93% 29.78 in 2.0 mi NE 25.3 mph 33.4 mph 0.01 in Snow Light Snow
7:47 AM 26.6 °F 11.7 °F 24.8 °F 93% 29.79 in 1.5 mi NE 24.2 mph 33.4 mph 0.01 in Snow Light Snow
7:56 AM 26.1 °F 10.1 °F 24.1 °F 92% 29.86 in 1.5 mi NE 27.6 mph 33.4 mph 0.01 in Snow Light Snow
8:16 AM 24.8 °F 9.0 °F 21.2 °F 86% 29.82 in 2.5 mi NE 25.3 mph 33.4 mph 0.00 in Snow Light Snow
8:23 AM 24.8 °F 8.7 °F 21.2 °F 86% 29.82 in 3.0 mi NE 26.5 mph 32.2 mph 0.00 in Snow Light Snow
8:44 AM 23.0 °F 6.6 °F 19.4 °F 86% 29.84 in 1.8 mi NE 25.3 mph 31.1 mph 0.00 in Snow Light Snow
8:56 AM 21.9 °F 5.5 °F 19.9 °F 92% 29.93 in 1.0 mi NE 24.2 mph 32.2 mph 0.00 in Snow Light Snow
9:06 AM 21.2 °F 4.9 °F 19.4 °F 93% 29.86 in 0.5 mi NNE 23.0 mph 29.9 mph 0.00 in Fog , Snow Snow
9:13 AM 21.2 °F 4.5 °F 19.4 °F 93% 29.87 in 0.2 mi NNE 24.2 mph 32.2 mph 0.00 in Fog , Snow Heavy Snow
9:56 AM 21.0 °F 4.3 °F 19.0 °F 92% 29.99 in 0.2 mi NNE 24.2 mph 31.1 mph 0.03 in Fog Light Freezing Fog
10:56 AM 21.0 °F 6.2 °F 18.0 °F 88% 30.07 in 0.2 mi North 18.4 mph 25.3 mph 0.04 in Fog Light Freezing Fog
11:43 AM 19.4 °F 4.5 °F 15.8 °F 86% 30.01 in 0.2 mi NNE 17.3 mph - 0.01 in Fog Light Freezing Fog
11:56 AM 19.9 °F 5.2 °F 16.0 °F 85% 30.11 in 0.2 mi NNE 17.3 mph - 0.02 in Fog Light Freezing Fog
12:24 PM 19.4 °F 3.6 °F 15.8 °F 86% 30.03 in 0.2 mi NNE 19.6 mph - N/A Fog Light Freezing Fog
12:43 PM 19.4 °F 3.2 °F 15.8 °F 86% 30.03 in 0.5 mi NNE 20.7 mph - 0.01 in Fog Light Freezing Fog
12:56 PM 19.9 °F 3.9 °F 16.0 °F 85% 30.14 in 0.5 mi NNE 20.7 mph - 0.01 in Fog Light Freezing Fog
1:04 PM 19.4 °F 2.8 °F 15.8 °F 86% 30.04 in 1.0 mi NNE 21.9 mph 28.8 mph N/A   Mist
1:15 PM 19.4 °F 2.1 °F 15.8 °F 86% 30.04 in 2.0 mi NNE 24.2 mph 29.9 mph N/A   Haze
1:22 PM 19.4 °F 2.5 °F 15.8 °F 86% 30.04 in 1.8 mi NNE 23.0 mph 29.9 mph N/A   Haze
1:42 PM 19.4 °F 3.6 °F 15.8 °F 86% 30.05 in 2.5 mi NNE 19.6 mph 27.6 mph N/A   Haze
1:49 PM 19.4 °F 2.1 °F 15.8 °F 86% 30.06 in 3.0 mi NNE 24.2 mph 27.6 mph N/A   Haze
1:56 PM 19.9 °F 2.2 °F 15.1 °F 81% 30.16 in 3.0 mi NNE 26.5 mph 29.9 mph N/A   Haze
2:09 PM 19.4 °F 3.6 °F 15.8 °F 86% 30.07 in 3.0 mi NNE 19.6 mph - N/A   Haze
2:17 PM 19.4 °F 3.2 °F 14.0 °F 80% 30.07 in 2.5 mi NNE 20.7 mph - N/A   Haze
2:27 PM 19.4 °F 2.5 °F 14.0 °F 80% 30.08 in 3.0 mi NNE 23.0 mph 28.8 mph N/A   Haze
2:42 PM 19.4 °F 2.8 °F 14.0 °F 80% 30.09 in 5.0 mi NNE 21.9 mph 26.5 mph N/A   Haze
2:56 PM 19.0 °F 2.7 °F 14.0 °F 81% 30.19 in 4.0 mi NNE 20.7 mph - N/A   Haze
3:56 PM 19.0 °F 4.0 °F 14.0 °F 81% 30.22 in 3.0 mi NNE 17.3 mph 23.0 mph N/A   Haze
4:56 PM 18.0 °F 1.3 °F 12.0 °F 78% 30.24 in 10.0 mi NNE 20.7 mph - N/A   Overcast
5:31 PM 17.6 °F 1.7 °F 12.2 °F 79% 30.15 in 10.0 mi North 18.4 mph - N/A   Overcast
5:54 PM 17.6 °F 3.2 °F 12.2 °F 79% 30.16 in 10.0 mi NNE 15.0 mph - N/A   Overcast
5:56 PM 18.0 °F 3.1 °F 12.0 °F 78% 30.27 in 10.0 mi NNE 16.1 mph - N/A   Overcast
6:07 PM 17.6 °F 3.2 °F 12.2 °F 79% 30.16 in 10.0 mi NNE 15.0 mph - N/A   Overcast
6:16 PM 17.6 °F 2.7 °F 10.4 °F 73% 30.17 in 10.0 mi NNE 16.1 mph - N/A   Overcast
6:24 PM 17.6 °F 3.7 °F 10.4 °F 73% 30.17 in 10.0 mi NNE 13.8 mph - N/A   Overcast
6:56 PM 17.1 °F 1.0 °F 10.9 °F 77% 30.29 in 10.0 mi North 18.4 mph - N/A   Overcast
7:16 PM 17.6 °F 2.2 °F 10.4 °F 73% 30.18 in 9.0 mi North 17.3 mph 21.9 mph 0.00 in Snow Light Snow
7:56 PM 17.1 °F 2.5 °F 10.0 °F 74% 30.32 in 9.0 mi North 15.0 mph - 0.00 in Snow Light Snow
8:42 PM 15.8 °F 2.1 °F 8.6 °F 73% 30.23 in 9.0 mi North 12.7 mph - 0.00 in Snow Light Snow
8:56 PM 15.1 °F 0.5 °F 9.0 °F 77% 30.37 in 6.0 mi North 13.8 mph - 0.00 in Snow Light Snow
9:42 PM 12.2 °F -1.8 °F 6.8 °F 79% 30.27 in 9.0 mi North 11.5 mph - 0.00 in Snow Light Snow
9:49 PM 12.2 °F -3.1 °F 6.8 °F 79% 30.27 in 9.0 mi North 13.8 mph - 0.00 in Snow Light Snow
9:56 PM 12.9 °F -0.9 °F 8.1 °F 81% 30.42 in 9.0 mi North 11.5 mph - 0.00 in Snow Light Snow
10:56 PM 12.9 °F -0.9 °F 8.1 °F 81% 30.41 in 8.0 mi North 11.5 mph - 0.00 in Snow Light Snow
11:36 PM 12.2 °F -2.5 °F 8.6 °F 85% 30.26 in 9.0 mi North 12.7 mph - 0.00 in Snow Light Snow
11:56 PM 12.9 °F -0.9 °F 8.1 °F 81% 30.42 in 9.0 mi North 11.5 mph - 0.00 in Snow Light Snow